Year,Month,Day,Hour,Minute,Value (Times are PST for temperature in C)
2015,08,18,00,00,19.30
2015,08,18,00,01,19.30
2015,08,18,00,02,19.20
2015,08,18,00,03,19.20
2015,08,18,00,04,19.20
2015,08,18,00,05,19.10
2015,08,18,00,06,19.10
2015,08,18,00,07,19.00
2015,08,18,00,08,19.00
2015,08,18,00,09,18.90
2015,08,18,00,10,18.90
2015,08,18,00,11,18.90
2015,08,18,00,12,18.80
2015,08,18,00,13,18.80
2015,08,18,00,14,18.80
2015,08,18,00,15,18.80
2015,08,18,00,16,18.80
2015,08,18,00,17,18.90
2015,08,18,00,18,18.90
2015,08,18,00,19,18.90
2015,08,18,00,20,18.90
2015,08,18,00,21,18.90
2015,08,18,00,22,19.00
2015,08,18,00,23,19.00
2015,08,18,00,24,18.90
2015,08,18,00,25,18.90
2015,08,18,00,26,18.90
2015,08,18,00,27,18.90
2015,08,18,00,28,18.90
2015,08,18,00,29,18.90
2015,08,18,00,30,18.80
2015,08,18,00,31,18.80
2015,08,18,00,32,18.80
2015,08,18,00,33,18.80
2015,08,18,00,34,18.80
2015,08,18,00,35,18.80
2015,08,18,00,36,18.80
2015,08,18,00,37,18.80
2015,08,18,00,38,18.90
2015,08,18,00,39,18.90
2015,08,18,00,40,18.90
2015,08,18,00,41,18.90
2015,08,18,00,42,18.90
2015,08,18,00,43,18.90
2015,08,18,00,44,18.90
2015,08,18,00,45,18.90
2015,08,18,00,46,18.90
2015,08,18,00,47,18.90
2015,08,18,00,48,18.90
2015,08,18,00,49,18.90
2015,08,18,00,50,18.90
2015,08,18,00,51,18.90
2015,08,18,00,52,18.90
2015,08,18,00,53,18.90
2015,08,18,00,54,18.90
2015,08,18,00,55,18.90
2015,08,18,00,56,18.90
2015,08,18,00,57,18.80
2015,08,18,00,58,18.80
2015,08,18,00,59,18.80
2015,08,18,01,00,18.80
2015,08,18,01,01,18.80
2015,08,18,01,02,18.80
2015,08,18,01,03,18.80
2015,08,18,01,04,18.80
2015,08,18,01,05,18.70
2015,08,18,01,06,18.70
2015,08,18,01,07,18.70
2015,08,18,01,08,18.70
2015,08,18,01,09,18.70
2015,08,18,01,10,18.60
2015,08,18,01,11,18.60
2015,08,18,01,12,18.60
2015,08,18,01,13,18.60
2015,08,18,01,14,18.50
2015,08,18,01,15,18.50
2015,08,18,01,16,18.50
2015,08,18,01,17,18.40
2015,08,18,01,18,18.40
2015,08,18,01,19,18.40
2015,08,18,01,20,18.40
2015,08,18,01,21,18.40
2015,08,18,01,22,18.30
2015,08,18,01,23,18.30
2015,08,18,01,24,18.30
2015,08,18,01,25,18.30
2015,08,18,01,26,18.20
2015,08,18,01,27,18.20
2015,08,18,01,28,18.20
2015,08,18,01,29,18.10
2015,08,18,01,30,18.10
2015,08,18,01,31,18.10
2015,08,18,01,32,18.10
2015,08,18,01,33,18.10
2015,08,18,01,34,18.10
2015,08,18,01,35,18.10
2015,08,18,01,36,18.10
2015,08,18,01,37,18.10
2015,08,18,01,38,18.20
2015,08,18,01,39,18.20
2015,08,18,01,40,18.20
2015,08,18,01,41,18.20
2015,08,18,01,42,18.20
2015,08,18,01,43,18.20
2015,08,18,01,44,18.20
2015,08,18,01,45,18.20
2015,08,18,01,46,18.20
2015,08,18,01,47,18.20
2015,08,18,01,48,18.20
2015,08,18,01,49,18.30
2015,08,18,01,50,18.30
2015,08,18,01,51,18.30
2015,08,18,01,52,18.30
2015,08,18,01,53,18.20
2015,08,18,01,54,18.20
2015,08,18,01,55,18.20
2015,08,18,01,56,18.20
2015,08,18,01,57,18.20
2015,08,18,01,58,18.20
2015,08,18,01,59,18.20
2015,08,18,02,00,18.20
2015,08,18,02,01,18.20
2015,08,18,02,02,18.20
2015,08,18,02,03,18.10
2015,08,18,02,04,18.10
2015,08,18,02,05,18.10
2015,08,18,02,06,18.10
2015,08,18,02,07,18.10
2015,08,18,02,08,18.10
2015,08,18,02,09,18.10
2015,08,18,02,10,18.00
2015,08,18,02,11,18.00
2015,08,18,02,12,17.90
2015,08,18,02,13,17.90
2015,08,18,02,14,17.90
2015,08,18,02,15,17.90
2015,08,18,02,16,17.90
2015,08,18,02,17,17.80
2015,08,18,02,18,17.80
2015,08,18,02,19,17.80
2015,08,18,02,20,17.80
2015,08,18,02,21,17.80
2015,08,18,02,22,17.70
2015,08,18,02,23,17.70
2015,08,18,02,24,17.70
2015,08,18,02,25,17.70
2015,08,18,02,26,17.70
2015,08,18,02,27,17.70
2015,08,18,02,28,17.60
2015,08,18,02,29,17.60
2015,08,18,02,30,17.60
2015,08,18,02,31,17.60
2015,08,18,02,32,17.60
2015,08,18,02,33,17.60
2015,08,18,02,34,17.60
2015,08,18,02,35,17.60
2015,08,18,02,36,17.50
2015,08,18,02,37,17.50
2015,08,18,02,38,17.50
2015,08,18,02,39,17.50
2015,08,18,02,40,17.50
2015,08,18,02,41,17.50
2015,08,18,02,42,17.50
2015,08,18,02,43,17.50
2015,08,18,02,44,17.50
2015,08,18,02,45,17.50
2015,08,18,02,46,17.60
2015,08,18,02,47,17.60
2015,08,18,02,48,17.60
2015,08,18,02,49,17.70
2015,08,18,02,50,17.70
2015,08,18,02,51,17.70
2015,08,18,02,52,17.80
2015,08,18,02,53,17.80
2015,08,18,02,54,17.90
2015,08,18,02,55,17.90
2015,08,18,02,56,17.90
2015,08,18,02,57,17.90
2015,08,18,02,58,17.90
2015,08,18,02,59,17.90
2015,08,18,03,00,17.90
2015,08,18,03,01,17.90
2015,08,18,03,02,17.90
2015,08,18,03,03,17.90
2015,08,18,03,04,17.80
2015,08,18,03,05,17.80
2015,08,18,03,06,17.80
2015,08,18,03,07,17.80
2015,08,18,03,08,17.80
2015,08,18,03,09,17.80
2015,08,18,03,10,17.80
2015,08,18,03,11,17.80
2015,08,18,03,12,17.70
2015,08,18,03,13,17.70
2015,08,18,03,14,17.70
2015,08,18,03,15,17.70
2015,08,18,03,16,17.70
2015,08,18,03,17,17.60
2015,08,18,03,18,17.60
2015,08,18,03,19,17.60
2015,08,18,03,20,17.60
2015,08,18,03,21,17.50
2015,08,18,03,22,17.50
2015,08,18,03,23,17.50
2015,08,18,03,24,17.50
2015,08,18,03,25,17.50
2015,08,18,03,26,17.40
2015,08,18,03,27,17.40
2015,08,18,03,28,17.40
2015,08,18,03,29,17.40
2015,08,18,03,30,17.40
2015,08,18,03,31,17.40
2015,08,18,03,32,17.40
2015,08,18,03,33,17.30
2015,08,18,03,34,17.30
2015,08,18,03,35,17.20
2015,08,18,03,36,17.20
2015,08,18,03,37,17.20
2015,08,18,03,38,17.20
2015,08,18,03,39,17.10
2015,08,18,03,40,17.10
2015,08,18,03,41,17.10
2015,08,18,03,42,17.10
2015,08,18,03,43,17.10
2015,08,18,03,44,17.10
2015,08,18,03,45,17.10
2015,08,18,03,46,17.10
2015,08,18,03,47,17.00
2015,08,18,03,48,17.00
2015,08,18,03,49,17.00
2015,08,18,03,50,17.00
2015,08,18,03,51,17.00
2015,08,18,03,52,17.00
2015,08,18,03,53,17.00
2015,08,18,03,54,17.00
2015,08,18,03,55,17.00
2015,08,18,03,56,16.90
2015,08,18,03,57,16.90
2015,08,18,03,58,16.90
2015,08,18,03,59,16.90
2015,08,18,04,00,16.90
2015,08,18,04,01,16.80
2015,08,18,04,02,16.80
2015,08,18,04,03,16.70
2015,08,18,04,04,16.70
2015,08,18,04,05,16.70
2015,08,18,04,06,16.60
2015,08,18,04,07,16.60
2015,08,18,04,08,16.60
2015,08,18,04,09,16.60
2015,08,18,04,10,16.60
2015,08,18,04,11,16.60
2015,08,18,04,12,16.60
2015,08,18,04,13,16.60
2015,08,18,04,14,16.60
2015,08,18,04,15,16.50
2015,08,18,04,16,16.50
2015,08,18,04,17,16.50
2015,08,18,04,18,16.50
2015,08,18,04,19,16.50
2015,08,18,04,20,16.60
2015,08,18,04,21,16.60
2015,08,18,04,22,16.60
2015,08,18,04,23,16.60
2015,08,18,04,24,16.60
2015,08,18,04,25,16.60
2015,08,18,04,26,16.60
2015,08,18,04,27,16.50
2015,08,18,04,28,16.50
2015,08,18,04,29,16.50
2015,08,18,04,30,16.40
2015,08,18,04,31,16.40
2015,08,18,04,32,16.40
2015,08,18,04,33,16.30
2015,08,18,04,34,16.30
2015,08,18,04,35,16.30
2015,08,18,04,36,16.30
2015,08,18,04,37,16.20
2015,08,18,04,38,16.20
2015,08,18,04,39,16.20
2015,08,18,04,40,16.20
2015,08,18,04,41,16.20
2015,08,18,04,42,16.10
2015,08,18,04,43,16.10
2015,08,18,04,44,16.10
2015,08,18,04,45,16.10
2015,08,18,04,46,16.00
2015,08,18,04,47,16.00
2015,08,18,04,48,15.90
2015,08,18,04,49,15.90
2015,08,18,04,50,15.90
2015,08,18,04,51,15.90
2015,08,18,04,52,15.80
2015,08,18,04,53,15.80
2015,08,18,04,54,15.80
2015,08,18,04,55,15.80
2015,08,18,04,56,15.80
2015,08,18,04,57,15.70
2015,08,18,04,58,15.70
2015,08,18,04,59,15.70
2015,08,18,05,00,15.70
2015,08,18,05,01,15.70
2015,08,18,05,02,15.70
2015,08,18,05,03,15.70
2015,08,18,05,04,15.70
2015,08,18,05,05,15.70
2015,08,18,05,06,15.70
2015,08,18,05,07,15.70
2015,08,18,05,08,15.70
2015,08,18,05,09,15.80
2015,08,18,05,10,15.80
2015,08,18,05,11,15.80
2015,08,18,05,12,15.80
2015,08,18,05,13,15.90
2015,08,18,05,14,15.90
2015,08,18,05,15,15.90
2015,08,18,05,16,15.90
2015,08,18,05,17,15.90
2015,08,18,05,18,15.90
2015,08,18,05,19,15.90
2015,08,18,05,20,15.90
2015,08,18,05,21,15.90
2015,08,18,05,22,15.90
2015,08,18,05,23,15.80
2015,08,18,05,24,15.80
2015,08,18,05,25,15.80
2015,08,18,05,26,15.80
2015,08,18,05,27,15.80
2015,08,18,05,28,15.70
2015,08,18,05,29,15.70
2015,08,18,05,30,15.70
2015,08,18,05,31,15.60
2015,08,18,05,32,15.60
2015,08,18,05,33,15.50
2015,08,18,05,34,15.50
2015,08,18,05,35,15.50
2015,08,18,05,36,15.50
2015,08,18,05,37,15.50
2015,08,18,05,38,15.50
2015,08,18,05,39,15.50
2015,08,18,05,40,15.50
2015,08,18,05,41,15.40
2015,08,18,05,42,15.40
2015,08,18,05,43,15.40
2015,08,18,05,44,15.40
2015,08,18,05,45,15.40
2015,08,18,05,46,15.30
2015,08,18,05,47,15.40
2015,08,18,05,48,15.40
2015,08,18,05,49,15.40
2015,08,18,05,50,15.40
2015,08,18,05,51,15.40
2015,08,18,05,52,15.40
2015,08,18,05,53,15.40
2015,08,18,05,54,15.40
2015,08,18,05,55,15.40
2015,08,18,05,56,15.40
2015,08,18,05,57,15.40
2015,08,18,05,58,15.40
2015,08,18,05,59,15.40
2015,08,18,06,00,15.40
2015,08,18,06,01,15.50
2015,08,18,06,02,15.50
2015,08,18,06,03,15.50
2015,08,18,06,04,15.50
2015,08,18,06,05,15.60
2015,08,18,06,06,15.60
2015,08,18,06,07,15.60
2015,08,18,06,08,15.70
2015,08,18,06,09,15.70
2015,08,18,06,10,15.70
2015,08,18,06,11,15.70
2015,08,18,06,12,15.70
2015,08,18,06,13,15.70
2015,08,18,06,14,15.70
2015,08,18,06,15,15.70
2015,08,18,06,16,15.70
2015,08,18,06,17,15.70
2015,08,18,06,18,15.60
2015,08,18,06,19,15.60
2015,08,18,06,20,15.60
2015,08,18,06,21,15.60
2015,08,18,06,22,15.60
2015,08,18,06,23,15.60
2015,08,18,06,24,15.50
2015,08,18,06,25,15.50
2015,08,18,06,26,15.50
2015,08,18,06,27,15.40
2015,08,18,06,28,15.40
2015,08,18,06,29,15.40
2015,08,18,06,30,15.30
2015,08,18,06,31,15.30
2015,08,18,06,32,15.30
2015,08,18,06,33,15.30
2015,08,18,06,34,15.20
2015,08,18,06,35,15.20
2015,08,18,06,36,15.20
2015,08,18,06,37,15.10
2015,08,18,06,38,15.10
2015,08,18,06,39,15.10
2015,08,18,06,40,15.10
2015,08,18,06,41,15.00
2015,08,18,06,42,15.00
2015,08,18,06,43,15.00
2015,08,18,06,44,14.90
2015,08,18,06,45,14.90
2015,08,18,06,46,14.90
2015,08,18,06,47,14.90
2015,08,18,06,48,14.90
2015,08,18,06,49,14.80
2015,08,18,06,50,14.80
2015,08,18,06,51,14.80
2015,08,18,06,52,14.80
2015,08,18,06,53,14.80
2015,08,18,06,54,14.80
2015,08,18,06,55,14.70
2015,08,18,06,56,14.70
2015,08,18,06,57,14.70
2015,08,18,06,58,14.70
2015,08,18,06,59,14.70
2015,08,18,07,00,14.70
2015,08,18,07,01,14.70
2015,08,18,07,02,14.70
2015,08,18,07,03,14.60
2015,08,18,07,04,14.60
2015,08,18,07,05,14.60
2015,08,18,07,06,14.60
2015,08,18,07,07,14.60
2015,08,18,07,08,14.70
2015,08,18,07,09,14.70
2015,08,18,07,10,14.70
2015,08,18,07,11,14.70
2015,08,18,07,12,14.70
2015,08,18,07,13,14.80
2015,08,18,07,14,14.80
2015,08,18,07,15,14.80
2015,08,18,07,16,14.80
2015,08,18,07,17,14.90
2015,08,18,07,18,14.90
2015,08,18,07,19,14.90
2015,08,18,07,20,15.00
2015,08,18,07,21,15.10
2015,08,18,07,22,15.20
2015,08,18,07,23,15.20
2015,08,18,07,24,15.30
2015,08,18,07,25,15.40
2015,08,18,07,26,15.40
2015,08,18,07,27,15.50
2015,08,18,07,28,15.60
2015,08,18,07,29,15.70
2015,08,18,07,30,15.80
2015,08,18,07,31,15.90
2015,08,18,07,32,16.00
2015,08,18,07,33,16.10
2015,08,18,07,34,16.10
2015,08,18,07,35,16.20
2015,08,18,07,36,16.30
2015,08,18,07,37,16.30
2015,08,18,07,38,16.40
2015,08,18,07,39,16.50
2015,08,18,07,40,16.60
2015,08,18,07,41,16.60
2015,08,18,07,42,16.70
2015,08,18,07,43,16.80
2015,08,18,07,44,16.80
2015,08,18,07,45,16.90
2015,08,18,07,46,16.90
2015,08,18,07,47,16.90
2015,08,18,07,48,17.00
2015,08,18,07,49,17.00
2015,08,18,07,50,17.10
2015,08,18,07,51,17.10
2015,08,18,07,52,17.20
2015,08,18,07,53,17.20
2015,08,18,07,54,17.20
2015,08,18,07,55,17.30
2015,08,18,07,56,17.30
2015,08,18,07,57,17.40
2015,08,18,07,58,17.40
2015,08,18,07,59,17.50
2015,08,18,08,00,17.60
2015,08,18,08,01,17.60
2015,08,18,08,02,17.70
2015,08,18,08,03,17.70
2015,08,18,08,04,17.70
2015,08,18,08,05,17.70
2015,08,18,08,06,17.70
2015,08,18,08,07,17.70
2015,08,18,08,08,17.80
2015,08,18,08,09,17.70
2015,08,18,08,10,17.80
2015,08,18,08,11,17.80
2015,08,18,08,12,17.80
2015,08,18,08,13,17.80
2015,08,18,08,14,17.90
2015,08,18,08,15,17.90
2015,08,18,08,16,18.00
2015,08,18,08,17,18.00
2015,08,18,08,18,18.00
2015,08,18,08,19,18.10
2015,08,18,08,20,18.10
2015,08,18,08,21,18.10
2015,08,18,08,22,18.10
2015,08,18,08,23,18.10
2015,08,18,08,24,18.10
2015,08,18,08,25,18.20
2015,08,18,08,26,18.20
2015,08,18,08,27,18.20
2015,08,18,08,28,18.20
2015,08,18,08,29,18.20
2015,08,18,08,30,18.10
2015,08,18,08,31,18.00
2015,08,18,08,32,18.00
2015,08,18,08,33,18.00
2015,08,18,08,34,18.00
2015,08,18,08,35,17.90
2015,08,18,08,36,17.90
2015,08,18,08,37,17.90
2015,08,18,08,38,17.90
2015,08,18,08,39,17.90
2015,08,18,08,40,17.90
2015,08,18,08,41,17.90
2015,08,18,08,42,18.00
2015,08,18,08,43,18.00
2015,08,18,08,44,18.10
2015,08,18,08,45,18.10
2015,08,18,08,46,18.10
2015,08,18,08,47,18.20
2015,08,18,08,48,18.20
2015,08,18,08,49,18.20
2015,08,18,08,50,18.30
2015,08,18,08,51,18.30
2015,08,18,08,52,18.30
2015,08,18,08,53,18.40
2015,08,18,08,54,18.40
2015,08,18,08,55,18.40
2015,08,18,08,56,18.30
2015,08,18,08,57,18.40
2015,08,18,08,58,18.40
2015,08,18,08,59,18.40
2015,08,18,09,00,18.40
2015,08,18,09,01,18.40
2015,08,18,09,02,18.50
2015,08,18,09,03,18.50
2015,08,18,09,04,18.60
2015,08,18,09,05,18.60
2015,08,18,09,06,18.70
2015,08,18,09,07,18.70
2015,08,18,09,08,18.70
2015,08,18,09,09,18.70
2015,08,18,09,10,18.70
2015,08,18,09,11,18.80
2015,08,18,09,12,18.80
2015,08,18,09,13,18.80
2015,08,18,09,14,18.80
2015,08,18,09,15,18.90
2015,08,18,09,16,18.90
2015,08,18,09,17,19.00
2015,08,18,09,18,19.00
2015,08,18,09,19,19.10
2015,08,18,09,20,19.10
2015,08,18,09,21,19.20
2015,08,18,09,22,19.30
2015,08,18,09,23,19.30
2015,08,18,09,24,19.30
2015,08,18,09,25,19.30
2015,08,18,09,26,19.40
2015,08,18,09,27,19.50
2015,08,18,09,28,19.50
2015,08,18,09,29,19.60
2015,08,18,09,30,19.70
2015,08,18,09,31,19.70
2015,08,18,09,32,19.80
2015,08,18,09,33,19.80
2015,08,18,09,34,19.90
2015,08,18,09,35,20.00
2015,08,18,09,36,20.00
2015,08,18,09,37,20.00
2015,08,18,09,38,20.00
2015,08,18,09,39,20.00
2015,08,18,09,40,19.90
2015,08,18,09,41,19.90
2015,08,18,09,42,19.80
2015,08,18,09,43,19.80
2015,08,18,09,44,19.80
2015,08,18,09,45,19.80
2015,08,18,09,46,19.90
2015,08,18,09,47,19.90
2015,08,18,09,48,19.90
2015,08,18,09,49,19.90
2015,08,18,09,50,20.00
2015,08,18,09,51,20.10
2015,08,18,09,52,20.20
2015,08,18,09,53,20.30
2015,08,18,09,54,20.40
2015,08,18,09,55,20.50
2015,08,18,09,56,20.70
2015,08,18,09,57,20.70
2015,08,18,09,58,20.70
2015,08,18,09,59,20.80
2015,08,18,10,00,20.80
2015,08,18,10,01,20.80
2015,08,18,10,02,20.90
2015,08,18,10,03,21.00
2015,08,18,10,04,21.10
2015,08,18,10,05,21.10
2015,08,18,10,06,21.20
2015,08,18,10,07,21.20
2015,08,18,10,08,21.20
2015,08,18,10,09,21.20
2015,08,18,10,10,21.30
2015,08,18,10,11,21.30
2015,08,18,10,12,21.40
2015,08,18,10,13,21.50
2015,08,18,10,14,21.60
2015,08,18,10,15,21.70
2015,08,18,10,16,21.70
2015,08,18,10,17,21.80
2015,08,18,10,18,21.80
2015,08,18,10,19,21.90
2015,08,18,10,20,22.00
2015,08,18,10,21,21.90
2015,08,18,10,22,21.90
2015,08,18,10,23,21.90
2015,08,18,10,24,22.00
2015,08,18,10,25,22.00
2015,08,18,10,26,22.10
2015,08,18,10,27,22.20
2015,08,18,10,28,22.30
2015,08,18,10,29,22.30
2015,08,18,10,30,22.40
2015,08,18,10,31,22.40
2015,08,18,10,32,22.40
2015,08,18,10,33,22.50
2015,08,18,10,34,22.60
2015,08,18,10,35,22.70
2015,08,18,10,36,22.80
2015,08,18,10,37,22.80
2015,08,18,10,38,22.70
2015,08,18,10,39,22.70
2015,08,18,10,40,22.70
2015,08,18,10,41,22.60
2015,08,18,10,42,22.60
2015,08,18,10,43,22.60
2015,08,18,10,44,22.60
2015,08,18,10,45,22.60
2015,08,18,10,46,22.50
2015,08,18,10,47,22.50
2015,08,18,10,48,22.40
2015,08,18,10,49,22.40
2015,08,18,10,50,22.40
2015,08,18,10,51,22.40
2015,08,18,10,52,22.40
2015,08,18,10,53,22.40
2015,08,18,10,54,22.40
2015,08,18,10,55,22.40
2015,08,18,10,56,22.50
2015,08,18,10,57,22.60
2015,08,18,10,58,22.70
2015,08,18,10,59,22.70
2015,08,18,11,00,22.80
2015,08,18,11,01,22.80
2015,08,18,11,02,22.90
2015,08,18,11,03,22.90
2015,08,18,11,04,22.90
2015,08,18,11,05,23.00
2015,08,18,11,06,23.00
2015,08,18,11,07,23.00
2015,08,18,11,08,23.00
2015,08,18,11,09,23.10
2015,08,18,11,10,23.10
2015,08,18,11,11,23.20
2015,08,18,11,12,23.20
2015,08,18,11,13,23.20
2015,08,18,11,14,23.30
2015,08,18,11,15,23.30
2015,08,18,11,16,23.30
2015,08,18,11,17,23.30
2015,08,18,11,18,23.40
2015,08,18,11,19,23.40
2015,08,18,11,20,23.40
2015,08,18,11,21,23.50
2015,08,18,11,22,23.50
2015,08,18,11,23,23.60
2015,08,18,11,24,23.70
2015,08,18,11,25,23.60
2015,08,18,11,26,23.60
2015,08,18,11,27,23.60
2015,08,18,11,28,23.70
2015,08,18,11,29,23.70
2015,08,18,11,30,23.70
2015,08,18,11,31,23.80
2015,08,18,11,32,23.80
2015,08,18,11,33,23.90
2015,08,18,11,34,24.00
2015,08,18,11,35,24.10
2015,08,18,11,36,24.10
2015,08,18,11,37,24.00
2015,08,18,11,38,24.00
2015,08,18,11,39,23.90
2015,08,18,11,40,24.00
2015,08,18,11,41,24.00
2015,08,18,11,42,24.10
2015,08,18,11,43,24.20
2015,08,18,11,44,24.20
2015,08,18,11,45,24.20
2015,08,18,11,46,24.20
2015,08,18,11,47,24.20
2015,08,18,11,48,24.20
2015,08,18,11,49,24.20
2015,08,18,11,50,24.30
2015,08,18,11,51,24.30
2015,08,18,11,52,24.40
2015,08,18,11,53,24.40
2015,08,18,11,54,24.30
2015,08,18,11,55,24.40
2015,08,18,11,56,24.40
2015,08,18,11,57,24.40
2015,08,18,11,58,24.40
2015,08,18,11,59,24.40
2015,08,18,12,00,24.50
2015,08,18,12,01,24.60
2015,08,18,12,02,24.70
2015,08,18,12,03,24.80
2015,08,18,12,04,24.70
2015,08,18,12,05,24.60
2015,08,18,12,06,24.50
2015,08,18,12,07,24.50
2015,08,18,12,08,24.60
2015,08,18,12,09,24.60
2015,08,18,12,10,24.70
2015,08,18,12,11,24.80
2015,08,18,12,12,24.80
2015,08,18,12,13,24.80
2015,08,18,12,14,24.80
2015,08,18,12,15,24.70
2015,08,18,12,16,24.70
2015,08,18,12,17,24.80
2015,08,18,12,18,24.80
2015,08,18,12,19,24.80
2015,08,18,12,20,24.70
2015,08,18,12,21,24.70
2015,08,18,12,22,24.80
2015,08,18,12,23,24.90
2015,08,18,12,24,25.00
2015,08,18,12,25,25.10
2015,08,18,12,26,25.20
2015,08,18,12,27,25.20
2015,08,18,12,28,25.30
2015,08,18,12,29,25.30
2015,08,18,12,30,25.40
2015,08,18,12,31,25.40
2015,08,18,12,32,25.40
2015,08,18,12,33,25.40
2015,08,18,12,34,25.40
2015,08,18,12,35,25.40
2015,08,18,12,36,25.30
2015,08,18,12,37,25.10
2015,08,18,12,38,24.90
2015,08,18,12,39,24.70
2015,08,18,12,40,24.50
2015,08,18,12,41,24.40
2015,08,18,12,42,24.40
2015,08,18,12,43,24.40
2015,08,18,12,44,24.30
2015,08,18,12,45,24.30
2015,08,18,12,46,24.20
2015,08,18,12,47,24.10
2015,08,18,12,48,24.00
2015,08,18,12,49,23.80
2015,08,18,12,50,23.70
2015,08,18,12,51,23.60
2015,08,18,12,52,23.50
2015,08,18,12,53,23.40
2015,08,18,12,54,23.30
2015,08,18,12,55,23.30
2015,08,18,12,56,23.30
2015,08,18,12,57,23.20
2015,08,18,12,58,23.10
2015,08,18,12,59,23.00
2015,08,18,13,00,22.90
2015,08,18,13,01,23.00
2015,08,18,13,02,23.10
2015,08,18,13,03,23.20
2015,08,18,13,04,23.30
2015,08,18,13,05,23.40
2015,08,18,13,06,23.60
2015,08,18,13,07,23.70
2015,08,18,13,08,23.80
2015,08,18,13,09,23.90
2015,08,18,13,10,24.00
2015,08,18,13,11,24.10
2015,08,18,13,12,24.20
2015,08,18,13,13,24.30
2015,08,18,13,14,24.50
2015,08,18,13,15,24.60
2015,08,18,13,16,24.70
2015,08,18,13,17,24.80
2015,08,18,13,18,25.00
2015,08,18,13,19,25.00
2015,08,18,13,20,25.10
2015,08,18,13,21,25.20
2015,08,18,13,22,25.20
2015,08,18,13,23,25.30
2015,08,18,13,24,25.40
2015,08,18,13,25,25.50
2015,08,18,13,26,25.60
2015,08,18,13,27,25.60
2015,08,18,13,28,25.60
2015,08,18,13,29,25.60
2015,08,18,13,30,25.60
2015,08,18,13,31,25.60
2015,08,18,13,32,25.60
2015,08,18,13,33,25.60
2015,08,18,13,34,25.60
2015,08,18,13,35,25.70
2015,08,18,13,36,25.70
2015,08,18,13,37,25.70
2015,08,18,13,38,25.80
2015,08,18,13,39,25.80
2015,08,18,13,40,25.90
2015,08,18,13,41,26.00
2015,08,18,13,42,26.10
2015,08,18,13,43,26.10
2015,08,18,13,44,26.20
2015,08,18,13,45,26.30
2015,08,18,13,46,26.30
2015,08,18,13,47,26.30
2015,08,18,13,48,26.20
2015,08,18,13,49,26.20
2015,08,18,13,50,26.20
2015,08,18,13,51,26.10
2015,08,18,13,52,26.10
2015,08,18,13,53,26.20
2015,08,18,13,54,26.20
2015,08,18,13,55,26.30
2015,08,18,13,56,26.30
2015,08,18,13,57,26.30
2015,08,18,13,58,26.30
2015,08,18,13,59,26.30
2015,08,18,14,00,26.30
2015,08,18,14,01,26.40
2015,08,18,14,02,26.40
2015,08,18,14,03,26.50
2015,08,18,14,04,26.40
2015,08,18,14,05,26.40
2015,08,18,14,06,26.40
2015,08,18,14,07,26.40
2015,08,18,14,08,26.40
2015,08,18,14,09,26.40
2015,08,18,14,10,26.30
2015,08,18,14,11,26.30
2015,08,18,14,12,26.30
2015,08,18,14,13,26.40
2015,08,18,14,14,26.40
2015,08,18,14,15,26.50
2015,08,18,14,16,26.50
2015,08,18,14,17,26.70
2015,08,18,14,18,26.70
2015,08,18,14,19,26.80
2015,08,18,14,20,26.70
2015,08,18,14,21,26.70
2015,08,18,14,22,26.70
2015,08,18,14,23,26.70
2015,08,18,14,24,26.70
2015,08,18,14,25,26.80
2015,08,18,14,26,27.00
2015,08,18,14,27,27.00
2015,08,18,14,28,27.10
2015,08,18,14,29,27.10
2015,08,18,14,30,27.20
2015,08,18,14,31,27.30
2015,08,18,14,32,27.40
2015,08,18,14,33,27.50
2015,08,18,14,34,27.50
2015,08,18,14,35,27.40
2015,08,18,14,36,27.30
2015,08,18,14,37,27.30
2015,08,18,14,38,27.40
2015,08,18,14,39,27.50
2015,08,18,14,40,27.60
2015,08,18,14,41,27.60
2015,08,18,14,42,27.60
2015,08,18,14,43,27.70
2015,08,18,14,44,27.60
2015,08,18,14,45,27.60
2015,08,18,14,46,27.60
2015,08,18,14,47,27.60
2015,08,18,14,48,27.70
2015,08,18,14,49,27.80
2015,08,18,14,50,27.80
2015,08,18,14,51,27.80
2015,08,18,14,52,27.90
2015,08,18,14,53,28.00
2015,08,18,14,54,28.10
2015,08,18,14,55,28.20
2015,08,18,14,56,28.20
2015,08,18,14,57,28.30
2015,08,18,14,58,28.30
2015,08,18,14,59,28.40
2015,08,18,15,00,28.40
2015,08,18,15,01,28.40
2015,08,18,15,02,28.40
2015,08,18,15,03,28.50
2015,08,18,15,04,28.60
2015,08,18,15,05,28.60
2015,08,18,15,06,28.50
2015,08,18,15,07,28.40
2015,08,18,15,08,28.30
2015,08,18,15,09,28.20
2015,08,18,15,10,28.20
2015,08,18,15,11,28.20
2015,08,18,15,12,28.20
2015,08,18,15,13,28.10
2015,08,18,15,14,27.90
2015,08,18,15,15,27.80
2015,08,18,15,16,27.80
2015,08,18,15,17,27.80
2015,08,18,15,18,27.80
2015,08,18,15,19,27.80
2015,08,18,15,20,27.80
2015,08,18,15,21,27.80
2015,08,18,15,22,27.80
2015,08,18,15,23,27.80
2015,08,18,15,24,27.80
2015,08,18,15,25,27.80
2015,08,18,15,26,27.70
2015,08,18,15,27,27.60
2015,08,18,15,28,27.60
2015,08,18,15,29,27.70
2015,08,18,15,30,27.80
2015,08,18,15,31,27.90
2015,08,18,15,32,28.00
2015,08,18,15,33,28.10
2015,08,18,15,34,28.20
2015,08,18,15,35,28.20
2015,08,18,15,36,28.30
2015,08,18,15,37,28.30
2015,08,18,15,38,28.30
2015,08,18,15,39,28.20
2015,08,18,15,40,28.10
2015,08,18,15,41,28.00
2015,08,18,15,42,28.00
2015,08,18,15,43,28.10
2015,08,18,15,44,28.10
2015,08,18,15,45,28.00
2015,08,18,15,46,28.00
2015,08,18,15,47,28.00
2015,08,18,15,48,27.90
2015,08,18,15,49,27.90
2015,08,18,15,50,27.90
2015,08,18,15,51,28.00
2015,08,18,15,52,27.90
2015,08,18,15,53,27.90
2015,08,18,15,54,27.70
2015,08,18,15,55,27.50
2015,08,18,15,56,27.40
2015,08,18,15,57,27.30
2015,08,18,15,58,27.20
2015,08,18,15,59,27.10
2015,08,18,16,00,26.90
2015,08,18,16,01,26.80
2015,08,18,16,02,26.70
2015,08,18,16,03,26.70
2015,08,18,16,04,26.70
2015,08,18,16,05,26.70
2015,08,18,16,06,26.80
2015,08,18,16,07,26.90
2015,08,18,16,08,27.00
2015,08,18,16,09,27.10
2015,08,18,16,10,27.20
2015,08,18,16,11,27.30
2015,08,18,16,12,27.30
2015,08,18,16,13,27.30
2015,08,18,16,14,27.40
2015,08,18,16,15,27.50
2015,08,18,16,16,27.60
2015,08,18,16,17,27.70
2015,08,18,16,18,27.80
2015,08,18,16,19,27.90
2015,08,18,16,20,28.00
2015,08,18,16,21,28.20
2015,08,18,16,22,28.30
2015,08,18,16,23,28.40
2015,08,18,16,24,28.40
2015,08,18,16,25,28.50
2015,08,18,16,26,28.50
2015,08,18,16,27,28.60
2015,08,18,16,28,28.70
2015,08,18,16,29,28.80
2015,08,18,16,30,28.90
2015,08,18,16,31,28.90
2015,08,18,16,32,28.90
2015,08,18,16,33,28.80
2015,08,18,16,34,28.80
2015,08,18,16,35,28.70
2015,08,18,16,36,28.50
2015,08,18,16,37,28.50
2015,08,18,16,38,28.40
2015,08,18,16,39,28.40
2015,08,18,16,40,28.40
2015,08,18,16,41,28.40
2015,08,18,16,42,28.40
2015,08,18,16,43,28.40
2015,08,18,16,44,28.40
2015,08,18,16,45,28.40
2015,08,18,16,46,28.40
2015,08,18,16,47,28.40
2015,08,18,16,48,28.40
2015,08,18,16,49,28.40
2015,08,18,16,50,28.40
2015,08,18,16,51,28.40
2015,08,18,16,52,28.40
2015,08,18,16,53,28.40
2015,08,18,16,54,28.40
2015,08,18,16,55,28.40
2015,08,18,16,56,28.40
2015,08,18,16,57,28.50
2015,08,18,16,58,28.50
2015,08,18,16,59,28.60
2015,08,18,17,00,28.70
2015,08,18,17,01,28.80
2015,08,18,17,02,28.90
2015,08,18,17,03,28.90
2015,08,18,17,04,28.90
2015,08,18,17,05,28.90
2015,08,18,17,06,28.90
2015,08,18,17,07,28.90
2015,08,18,17,08,29.00
2015,08,18,17,09,29.10
2015,08,18,17,10,29.00
2015,08,18,17,11,28.90
2015,08,18,17,12,28.90
2015,08,18,17,13,28.80
2015,08,18,17,14,28.80
2015,08,18,17,15,28.70
2015,08,18,17,16,28.70
2015,08,18,17,17,28.70
2015,08,18,17,18,28.70
2015,08,18,17,19,28.60